Location: Quebec
(46.8000°N, 71.2500°W)
Time: 22:55:25
(UTC-04:00)

Vanguard 2 - All Passes

Search period start: 18 June 2018 00:00
Search period end: 28 June 2018 00:00
Orbit: 553 x 2939 km, 32.9° (Epoch: 18 June)

Date Brightness Start Highest point End Pass type
(mag) Time Alt. Az. Time Alt. Az. Time Alt. Az.
18 Jun - 07:20:50 10° SSW 07:22:29 12° S 07:24:06 10° SSE daylight
19 Jun - 05:31:27 10° SSW 05:32:51 11° S 05:34:11 10° SSE daylight
19 Jun - 07:38:49 10° SSW 07:40:14 12° S 07:41:40 10° SSE daylight
20 Jun - 05:48:30 10° SSW 05:50:39 13° S 05:52:37 10° SSE daylight
20 Jun - 07:57:35 10° SSW 07:58:00 10° S 07:58:24 10° S daylight
21 Jun - 03:58:56 10° S 04:00:51 11° S 04:02:34 10° SSE visible
21 Jun - 06:06:01 10° SW 06:08:27 14° S 06:10:37 10° SSE daylight
22 Jun - 04:15:29 10° SSW 04:18:42 14° S 04:21:23 10° SE visible
22 Jun - 06:23:52 10° SW 06:26:13 14° S 06:28:20 10° SSE daylight
23 Jun - 02:26:14 10° S 02:28:33 11° SSE 02:30:37 10° SE visible
23 Jun - 04:32:42 10° SW 04:36:32 17° S 04:39:38 10° SE daylight
23 Jun - 06:42:00 10° SW 06:43:57 12° SSW 06:45:45 10° SSE daylight
24 Jun - 02:42:03 10° SSW 02:46:26 15° SSE 02:49:58 10° SE visible
24 Jun - 04:50:14 10° SW 04:54:21 18° S 04:57:38 10° SE daylight
24 Jun - 07:00:49 10° SSW 07:01:39 10° SSW 07:02:26 10° S daylight
25 Jun - 00:54:41 10° SSE 00:55:50 10° SSE 00:56:56 10° SSE visible
25 Jun - 02:58:52 10° SSW 03:04:20 19° S 03:08:28 10° SE visible
25 Jun - 05:08:00 10° SW 05:12:09 18° S 05:15:26 10° SE daylight
26 Jun - 01:08:37 10° S 01:13:45 15° SSE 01:17:55 10° SE visible
26 Jun - 03:16:06 10° SW 03:22:13 22° S 03:26:39 10° SE visible
26 Jun - 05:25:58 10° SW 05:29:54 18° SSW 05:33:03 10° SSE daylight
27 Jun - 01:24:46 10° SSW 01:31:41 19° SSE 01:36:51 10° ESE visible
27 Jun - 03:33:38 10° SW 03:40:04 24° S 03:44:39 10° SE visible
27 Jun - 05:44:08 10° SW 05:47:36 16° SSW 05:50:27 10° SSE daylight
27 Jun - 23:36:07 10° S 23:40:34 12° SSE 23:44:27 10° SE visible
